Wind_Gust
0 0 0 0 0 0 0 0 0 0 0 0 0 0 0 0 0 0 0 0 0 0 0 0 0 0 0 0 0 0 0 0 0 0 0 0 0 0 0 0 0 0 0 0 0 0 0 0 0 0 0 0 0 0 0 0 0 0 0 0 0 0 0
0 0 0 0 0 0 0 0 0 0 0 0 0 0 0 0 0 0 0 0 0 0 0 0 0 0 0 0 0 0 0 0 0 0 0 0 0 0 0 0 0 0 0 0 0 0 0 0 0 0 0 0 0 0 0 0 0 0 0 0 0 0 0
0 0 0 0 0 0 0 0 0 0 0 0 0 0 0 0 0 0 0 0 0 0 0 0 0 0 0 0 0 0 0 0 0 0 0 0 0 0 0 0 0 0 0 0 0 0 0 0 0 0 0 0 0 0 0 0 0 0 0 0 0 0 0
0 0 0 0 0 0 0 0 0 0 0 0 0 0 0 0 0 0 0 0 0 0 0 0 0 0 0 0 0 0 0 0 0 0 0 0 0 0 0 0 0 0 0 0 0 0 0 0 0 0 0 0 0 0 0 0 0 0 0 0 0 0 0
0 0 0 0 0 0 0 0 0 0 0 0 0 0 0 0 0 0 0 0 0 0 0 0 0 0 0 0 0 0 0 0 0 0 0 0 0 0 0 0 0 0 0 0 0 0 0 0 0 0 0 0 0 0 0 0 0 0 0 0 0 0 0
0 0 0 0 0 0 0 0 0 0 0 0 0 0 0 0 0 0 0 0 0 0 0 0 0 0 0 0 0 0 0 0 0 0 0 0 0 0 0 0 0 0 0 0 0 0 0 0 0 0 0 0 0 0 0 0 0 0 0 0 0 0 0
0 0 0 0 0 0 0 0 0 0 0 0 0 0 0 0 0 0 0 0 0 0 0 0 0 0 0 0 0 0 0 0 0 0 0 0 0 0 0 0 0 0 0 0 0 0 0 0 0 0 0 0 0 0 0 0 0 0 0 0 0 0 0
0 0 0 0 0 0 0 0 0 0 0 0 0 0 0 0 0 0 0 0 0 0 0 0 0 0 0 0 0 0 0 0 0 0 0 0 0 0 0 0 0 0 0 0 0 0 0 0 0 0 0 0 0 0 0 0 0 0 0 0 0 0 0
0 0 0 0 0 0 0 0 0 0 0 0 0 0 0 0 0 0 0 0 0 0 0 0 0 0 0 0 0 0 0 0 0 0 0 0 0 0 0 0 0 0 0 0 0 0 0 0 0 0 0 0 0 0 0 0 0 0 0 0 0 0 0
0 0 0 0 0 0 0 0 0 0 0 0 0 0 0 0 0 0 0 0 0 0 0 0 0 0 0 0 0 0 0 0 0 0 0 0 0 0 0 0 0 0 0 0 0 0 0 0 0 0 0 0 0 0 0 0 0 0 0 0 0 0 0
0 0 0 0 0 0 0 0 0 0 0 0 0 0 0 0 0 0 0 0 0 0 0 0 0 0 0 0 0 0 0 0 0 0 0 0 0 0 0 0 0 0 0 0 0 0 0 0 0 0 0 0 0 0 0 0 0 0 0 0 0 0 0
0 0 0 0 0 0 0 0 0 0 0 0 0 0 0 0 0 0 0 0 0 0 0 0 0 0 0 0 0 0 0 0 0 0 0 0 0 0 0 0 0 0 0 0 0 0 0 0 0 0 0 0 0 0 0 0 0 0 0 0 0 0 0
0 0 0 0 0 0 0 0 0 0 0 0 0 0 0 0 0 0 0 0 0 0 0 0 0 0 0 0 0 0 0 0 0 0 0 0 0 0 0 0 0 0 0 0 0 0 0 0 0 0 0 0 0 0 0 0 0 0 0 0 0 0 0
0 0 0 0 0 0 0 0 0 0 0 0 0 0 0 0 0 0 0 0 0 0 0 0 0 0 0 0 0 0 0 0 0 0 0 0 0 0 0 0 0 0 0 0 0 0 0 0 0 0 0 0 0 0 0 0 0 0 0 0 0 0 0
0 0 0 0 0 0 0 0 0 0 0 0 0 0 0 0 0 0 0 0 0 0 0 0 0 0 0 0 0 0 0 0 0 0 0 0 0 0 0 0 0 0 0 0 0 0 0 0 0 0 0 0 0 0 0 0 0 0 0 0 0 0 0
0 0 0 0 0 0 0 0 0 0 0 0 0 0 0 0 0 0 0 0 0 0 0 0 0 0 0 0 0 0 0 0 0 0 0 0 0 0 0 0 0 0 0 0 0 0 0 0 0 0 0 0 0 0 0 0 0 0 0 0 0 0 0
0 0 0 0 0 0 0 0 0 0 0 0 0 0 0 0 0 0 0 0 0 0 0 0 0 0 0 0 0 0 0 0 0 0 0 0 0 0 0 0 0 0 0 0 0 0 0 0 0 0 0 0 0 0 0 0 0 0 0 0 0 0 0
0 0 0 0 0 0 0 0 0 0 0 0 0 0 0 0 0 0 0 0 0 0 0 0 0 0 0 0 0 0 0 0 0 0 0 0 0 0 0 0 0 0 0 0 0 0 0 0 0 0 0 0 0 0 0 0 0 0 0 0 0 0 0
0 0 0 0 0 0 0 0 0 0 0 0 0 0 0 0 0 0 0 0 0 0 0 0 0 0 0 0 0 0 0 0 0 0 0 0 0 0 0 0 0 0 0 0 0 0 0 0 0 0 0 0 0 0 0 0 0 0 0 0 0 0 0
0 0 0 0 0 0 0 0 0 0 0 0 0 0 0 0 0 0 0 0 0 0 0 0 0 0 0 0 0 0 0 0 0 0 0 0 0 0 0 0 0 0 0 0 0 0 0 0 0 0 0 0 0 0 0 0 0 0 0 0 0 0 0
0 0 0 0 0 0 0 0 0 0 0 0 0 0 0 0 0 0 0 0 0 0 0 0 0 0 0 0 0 0 0 0 0 0 0 0 0 0 0 0 0 0 0 0 0 0 0 0 0 0 0 0 0 0 0 0 0 0 0 0 0 0 0
0 0 0 0 0 0 0 0 0 0 0 0 0 0 0 0 0 0 0 0 0 0 0 0 0 0 0 0 0 0 0 0 0 0 0 0 0 0 0 0 0 0 0 0 0 0 0 0 0 0 0 0 0 0 0 0 0 0 0 0 0 0 0
0 0 0 0 0 0 0 0 0 0 0 0 0 0 0 0 0 0 0 0 0 0 0 0 0 0 0 0 0 0 0 0 0 0 0 0 0 0 0 0 0 0 0 0 0 0 0 0 0 0 0 0 0 0 0 0 0 0 0 0 0 0 0
0 0 0 0 0 0 0 0 0 0 0 0 0 0 0 0 0 0 0 0 0 0 0 0 0 0 0 0 0 0 0 0 0 0 0 0 0 0 0 0 0 0 0 0 0 0 0 0 0 0 0 0 0 0 0 0 0 0 0 0 0 0 0
0 0 0 0 0 0 0 0 0 0 0 0 0 0 0 0 0 0 0 0 0 0 0 0 0 0 0 0 0 0 0 0 0 0 0 0 0 0 0 0 0 0 0 0 0 0 0 0 0 0 0 0 0 0 0 0 0 0 0 0 0 0 0
0 0 0 0 0 0 0 0 0 0 0 0 0 0 0 0 0 0 0 0 0 0 0 0 0 0 0 0 0 0 0 0 0 0 0 0 0 0 0 0 0 0 0 0 0 0 0 0 0 0 0 0 0 0 0 0 0 0 0 0 0 0 0
0 0 0 0 0 0 0 0 0 0 0 0 0 0 0 0 0 0 0 0 0 0 0 0 0 0 0 0 0 0 0 0 0 0 0 0 0 0 0 0 0 0 0 0 0 0 0 0 0 0 0 0 0 0 0 0 0 0 0 0 0 0 0
0 0 0 0 0 0 0 0 0 0 0 0 0 0 0 0 0 0 0 0 0 0 0 0 0 0 0 0 0 0 0 0 0 0 0 0 0 0 0 0 0 0 0 0 0 0 0 0 0 0 0 0 0 0 0 0 0 0 0 0 0 0 0
0 0 0 0 0 0 0 0 0 0 0 0 0 0 0 0 0 0 0 0 0 0 0 0 0 0 0 0 0 0 0 0 0 0 0 0 0 0 0 0 0 0 0 0 0 0 0 0 0 0 0 0 0 0 0 0 0 0 0 0 0 0 0
0 0 0 0 0 0 0 0 0 0 0 0 0 0 0 0 0 0 0 0 0 0 0 0 0 0 0 0 0 0 0 0 0 0 0 0 0 0 0 0 0 0 0 0 0 0 0 0 0 0 0 0 0 0 0 0 0 0 0 0 0 0 0
0 0 0 0 0 0 0 0 0 0 0 0 0 0 0 0 0 0 0 0 0 0 0 0 0 0 0 0 0 0 0 0 0 0 0 0 0 0 0 0 0 0 0 0 0 0 0 0 0 0 0 0 0 0 0 0 0 0 0 0 0 0 0
0 0 0 0 0 0 0 0 0 0 0 0 0 0 0 0 0 0 0 0 0 0 0 0 0 0 0 0 0 0 0 0 0 0 0 0 0 0 0 0 0 0 0 0 0 0 0 0 0 0 0 0 0 0 0 0 0 0 0 0 0 0 0
0 0 0 0 0 0 0 0 0 0 0 0 0 0 0 0 0 0 0 0 0 0 0 0 0 0 0 0 0 0 0 0 0 0 0 0 0 0 0 0 0 0 0 0 0 0 0 0 0 0 0 0 0 0 0 0 0 0 0 0 0 0 0
0 0 0 0 0 0 0 0 0 0 0 0 0 0 0 0 0 0 0 0 0 0 0 0 0 0 0 0 0 0 0 0 0 0 0 0 0 0 0 0 0 0 0 0 0 0 0 0 0 0 0 0 0 0 0 0 0 0 0 0 0 0 0
0 0 0 0 0 0 0 0 0 0 0 0 0 0 0 0 0 0 0 0 0 0 0 0 0 0 0 0 0 0 0 0 0 0 0 0 0 0 0 0 0 0 0 0 0 0 0 0 0 0 0 0 0 0 0 0 0 0 0 0 0 0 0
0 0 0 0 0 0 0 0 0 0 0 0 0 0 0 0 0 0 0 0 0 0 0 0 0 0 0 0 0 0 0 0 0 0 0 0 0 0 0 0 0 0 0 0 0 0 0 0 0 0 0 0 0 0 0 0 0 0 0 0 0 0 0
0 0 0 0 0 0 0 0 0 0 0 0 0 0 0 0 0 0 0 0 0 0 0 0 0 0 0 0 0 0 0 0 0 0 0 0 0 0 0 0 0 0 0 0 0 0 0 0 0 0 0 0 0 0 0 0 0 0 0 0 0 0 0
Wind_Speed
7 6 4 4 3 3 3 2 1 0 0 0 1 2 2 3 4 4 3 3 4 3 3 3 3 3 3 3 3 3 4 3 2 2 4 0 2 2 2 4 4 3 7 7 4 5 2 1 4 3 2 4 4 7 8 8 8 8 8 8 9 9 8
4 5 4 3 4 3 3 1 0 0 1 2 2 3 3 4 3 4 4 4 4 3 3 4 3 3 3 4 5 6 5 5 4 2 1 3 1 3 3 4 3 6 8 6 2 0 3 3 5 4 5 3 2 4 6 6 6 6 8 9 9 10 9
4 3 4 5 4 3 4 2 1 1 0 1 1 3 4 3 4 4 4 4 4 4 4 5 5 5 5 4 3 3 3 4 4 5 3 3 3 3 3 3 4 4 4 3 5 5 4 5 8 5 4 4 5 4 1 4 6 6 7 7 7 9 9
6 7 5 4 4 3 4 3 2 2 1 1 0 1 4 4 4 4 4 4 4 5 6 5 5 4 5 5 4 3 3 3 3 3 4 3 3 4 5 4 5 6 7 6 6 5 5 5 6 9 8 6 5 6 5 4 4 6 6 5 6 7 7
10 8 9 8 7 7 5 4 3 1 2 1 0 1 2 3 4 3 4 4 5 5 5 4 5 5 5 4 5 5 4 4 3 3 2 3 4 3 4 5 6 6 6 7 7 5 6 7 7 7 7 4 5 7 7 6 5 5 5 7 7 8 8
10 9 9 8 7 8 7 5 4 4 3 2 2 3 1 2 3 4 3 3 3 3 3 4 4 5 5 5 6 5 4 5 4 4 4 3 3 3 5 5 5 5 7 6 5 6 7 8 8 8 9 7 9 7 5 5 6 4 7 7 7 7 8
9 9 8 9 8 7 8 7 7 7 6 6 4 4 4 3 3 3 3 3 2 3 3 3 3 3 4 4 4 5 5 4 4 4 3 4 4 4 4 5 5 6 6 6 6 6 6 5 6 9 10 5 5 9 5 4 4 4 5 5 6 7 8
9 8 8 8 8 7 6 7 6 5 6 5 6 4 4 4 4 3 3 3 3 3 3 4 5 5 3 4 3 4 4 4 6 6 4 4 6 6 6 6 6 6 6 6 5 6 6 8 9 8 7 9 8 7 8 6 5 8 10 4 6 7 7
7 7 7 6 7 8 8 8 7 6 5 5 4 4 4 4 4 4 4 4 4 3 2 1 2 3 5 5 4 4 5 4 5 6 7 6 5 6 6 6 6 6 6 6 6 6 7 7 7 6 6 6 8 10 6 8 6 8 6 7 4 6 7
8 9 9 8 8 7 7 7 7 6 5 5 5 4 5 4 4 4 4 4 3 3 2 2 2 3 3 3 4 4 5 4 4 5 5 6 6 6 5 6 6 7 7 7 7 6 7 6 7 7 7 8 9 9 8 9 9 8 6 6 6 5 7
9 8 7 8 7 7 5 5 5 6 6 5 5 4 5 4 4 4 4 3 3 3 3 3 2 2 2 3 3 3 3 3 4 3 4 4 5 6 6 7 6 7 7 7 8 8 7 7 7 7 8 8 8 12 10 11 11 6 5 3 6 5 3
7 7 6 7 7 7 7 7 7 6 5 5 6 5 5 5 4 4 4 4 3 3 3 3 2 1 1 2 2 2 3 3 4 4 4 3 3 4 6 8 7 7 6 7 8 8 8 8 7 6 7 8 9 10 11 8 8 6 4 7 7 6 5
8 8 7 7 8 8 7 7 6 5 6 5 5 5 5 5 4 4 3 4 3 3 3 2 2 1 1 1 1 1 2 2 3 4 4 4 5 4 5 7 6 7 7 7 7 7 8 9 8 8 7 7 9 10 9 10 11 14 8 7 6 6 6
9 8 7 7 8 7 6 7 6 6 5 5 5 5 4 5 4 4 4 4 4 3 3 3 2 2 2 2 2 2 3 3 3 3 3 5 4 5 6 7 7 6 6 7 7 7 7 8 9 8 8 8 8 8 9 9 11 11 11 5 6 5 5
9 7 8 7 8 7 6 6 5 5 6 5 5 4 4 4 3 3 3 3 3 3 3 1 0 1 1 1 2 2 2 3 3 4 3 4 4 5 5 7 9 7 5 6 7 8 7 8 8 9 9 8 9 9 7 10 11 10 14 6 6 5 3
8 8 9 7 8 7 6 6 5 7 5 4 3 4 4 4 3 3 2 2 2 1 1 1 1 0 0 1 2 2 3 3 3 4 4 4 4 4 5 7 8 7 5 6 7 7 7 8 7 9 10 8 9 10 8 8 8 10 11 11 6 7 6
9 9 9 8 8 7 6 6 5 6 5 4 4 3 3 3 3 2 3 2 2 2 3 2 1 2 1 1 2 2 3 3 4 4 5 4 4 4 5 7 7 7 7 8 8 7 6 7 7 8 9 9 8 10 9 8 8 8 9 11 4 8 7
9 9 9 7 8 7 7 6 5 5 5 4 4 3 2 3 3 3 3 3 3 3 2 2 1 1 2 2 3 3 3 3 4 5 5 6 6 7 7 8 9 8 8 9 9 8 6 7 7 8 9 9 9 9 9 9 8 7 9 11 9 6 6
9 8 8 7 8 7 7 6 5 4 5 5 3 3 4 3 4 3 3 2 1 1 1 1 1 2 2 3 3 4 4 5 5 6 6 7 7 7 7 8 9 9 9 9 9 9 8 8 7 8 9 10 10 9 9 8 7 6 8 10 11 9 5
8 7 7 7 6 5 5 5 5 4 3 4 5 4 4 4 2 3 3 3 2 2 1 1 1 1 2 3 3 4 4 5 6 6 6 7 7 7 8 8 9 9 9 9 10 11 10 9 8 8 8 9 9 9 9 8 7 7 7 7 9 9 8
7 7 6 6 6 5 4 4 4 4 4 5 5 5 4 3 3 3 3 2 1 1 1 1 1 1 2 2 3 3 3 4 5 6 7 7 7 7 7 8 9 9 9 9 9 10 9 9 7 8 7 7 8 10 10 9 8 7 7 8 7 9 6
4 5 5 5 5 5 4 4 4 4 4 5 4 4 3 3 3 1 1 2 2 1 0 0 1 1 2 3 3 4 4 5 6 7 7 8 8 9 9 9 9 9 10 12 13 11 11 10 9 10 9 7 9 9 10 9 9 7 7 7 9 7 6
5 5 5 5 5 5 5 4 5 5 4 4 4 3 3 2 2 2 1 1 0 0 1 2 3 5 5 4 4 4 6 6 6 6 7 8 8 8 9 9 10 15 15 15 15 16 18 17 16 13 12 10 9 10 10 10 10 9 7 8 8 8 9
6 7 5 5 4 5 5 5 5 4 4 4 4 2 2 2 2 2 2 0 0 2 3 3 7 8 8 10 6 6 6 7 6 7 7 8 9 9 8 8 8 10 13 13 12 14 15 17 17 17 19 19 17 14 12 12 11 9 10 9 8 8 9
8 6 6 6 6 6 5 5 4 4 4 3 1 2 1 2 2 1 0 0 2 3 3 6 10 10 11 11 11 8 7 7 7 7 7 8 8 8 9 9 8 7 8 9 11 12 14 16 16 17 18 17 17 18 16 13 12 10 9 9 10 10 9
8 8 7 7 6 6 5 4 4 4 4 3 2 2 4 3 1 0 0 2 3 4 4 7 11 12 12 13 13 11 7 7 8 8 8 8 9 9 9 10 9 8 8 13 12 11 11 13 16 17 17 18 19 18 18 19 18 15 11 12 12 13 10
13 11 9 8 7 6 6 6 6 5 4 3 4 4 2 1 0 0 1 2 3 4 5 7 11 12 13 13 13 11 7 8 8 9 9 9 9 10 10 10 10 10 8 9 9 10 10 12 13 13 14 12 12 15 17 18 18 20 17 14 13 14 12
14 12 10 8 7 6 6 5 6 4 5 6 6 5 4 2 1 1 1 2 2 4 5 10 11 12 13 14 15 12 7 7 8 9 9 9 10 10 10 10 10 10 9 9 9 10 11 12 13 13 14 15 15 13 12 12 12 10 8 7 9 11 11
13 11 10 8 7 6 6 7 6 5 5 5 4 4 2 2 1 0 1 1 2 4 6 10 11 11 12 13 15 9 8 9 9 9 10 9 9 9 9 9 9 10 10 11 11 14 14 13 14 15 15 15 15 14 15 13 13 12 11 10 8 8 8
10 9 9 9 7 7 6 5 6 6 7 6 5 4 4 3 3 2 0 1 3 4 5 8 11 13 13 14 12 9 9 10 10 10 10 9 9 9 10 10 10 11 11 11 11 13 14 15 14 16 16 15 13 12 14 11 14 19 18 18 18 17 18
9 8 7 7 6 5 6 6 7 6 8 7 6 6 5 4 3 2 1 2 3 5 6 9 13 13 13 13 12 10 10 10 11 11 11 10 9 10 11 19 16 12 12 12 13 15 15 14 14 15 15 15 15 14 13 9 9 10 15 17 19 20 18
9 9 7 6 7 8 8 7 5 5 6 7 6 6 5 3 3 3 3 2 5 6 7 9 12 13 13 13 12 9 10 10 11 11 11 11 10 10 10 11 16 15 14 14 16 16 16 15 15 14 14 14 15 16 12 8 10 11 8 8 10 10 11
7 8 8 8 7 7 5 6 6 6 5 6 6 5 4 4 4 3 2 1 4 5 7 8 10 14 14 14 14 11 9 10 11 12 12 12 12 10 10 10 11 14 17 17 17 18 18 18 16 15 14 15 15 16 8 9 12 10 10 10 10 10 11
8 7 8 8 7 6 6 7 6 5 6 4 4 5 4 3 2 2 2 3 4 5 6 8 9 14 15 15 15 13 9 10 11 12 12 12 10 12 10 10 10 12 16 17 17 19 19 20 19 17 15 15 13 12 12 12 11 11 10 10 9 9 9
9 8 6 7 6 5 5 6 7 6 5 6 5 4 2 1 1 2 4 4 4 6 8 10 10 12 14 15 15 16 11 10 11 12 12 11 10 11 10 10 9 12 17 19 19 20 21 21 21 17 17 20 21 20 17 14 13 12 12 11 10 10 10
8 6 6 6 7 7 5 4 4 4 5 5 4 3 3 2 1 3 5 6 5 7 8 8 12 11 13 15 16 16 17 14 16 15 12 14 12 13 10 12 13 18 19 20 22 23 23 25 22 18 22 21 21 22 20 14 13 13 12 12 12 12 12
7 7 8 7 6 4 4 4 4 5 5 5 4 3 3 2 2 4 6 7 7 8 8 8 9 13 13 15 16 17 17 18 18 14 13 12 11 11 10 9 11 17 21 22 23 23 23 22 18 21 22 23 22 21 15 14 13 13 12 12 12 12 11
Wind_Direction
170 179 185 178 173 149 129 135 73 327 342 227 67 30 45 81 91 67 66 59 50 36 50 57 44 17 23 27 41 39 24 350 322 319 313 326 256 307 343 277 286 253 233 252 219 187 180 240 301 319 295 258 227 233 228 222 213 209 203 207 207 203 204
166 168 161 144 146 130 109 57 109 334 349 39 84 83 61 85 79 86 69 56 47 21 32 25 24 35 44 40 32 28 25 7 354 295 324 293 241 271 300 284 246 239 257 255 265 214 180 199 268 262 282 318 290 251 238 238 234 226 212 209 209 207 205
167 148 140 152 150 137 136 181 148 155 280 72 73 80 89 88 85 74 65 53 35 25 28 16 11 19 17 29 56 65 56 34 358 4 323 296 304 289 248 255 259 297 298 270 243 239 260 243 253 257 251 270 285 285 291 264 246 235 230 224 218 215 211
173 157 150 162 145 132 157 201 191 225 275 245 32 75 99 84 78 78 64 43 35 34 33 28 26 16 11 9 10 31 48 49 28 17 5 341 308 306 296 269 253 245 251 256 254 238 217 228 237 250 262 250 240 282 279 260 250 241 233 226 225 229 223
167 167 170 172 173 167 173 185 200 121 230 259 304 97 52 82 92 70 63 55 44 34 24 17 15 13 11 20 23 23 19 21 24 33 38 9 345 309 282 281 276 270 262 252 254 234 228 236 229 253 253 262 267 238 263 276 255 250 230 225 223 220 219
170 172 175 173 175 169 175 174 165 184 180 177 217 176 226 132 108 91 77 73 56 44 40 28 14 17 20 16 10 9 19 23 11 7 2 340 316 303 294 284 267 260 254 252 256 259 246 235 229 250 252 234 248 263 248 230 256 237 222 221 223 227 224
174 175 179 173 178 176 172 175 175 175 180 187 185 194 185 169 126 135 117 109 90 58 47 40 31 25 21 15 10 8 359 351 12 19 8 351 340 319 310 304 288 276 268 259 250 244 245 260 247 230 245 249 234 256 256 248 244 254 267 231 212 215 222
172 177 182 177 172 172 181 173 180 176 176 191 182 189 168 157 152 135 122 94 72 60 46 21 359 356 11 15 10 5 358 355 357 357 4 3 349 342 335 322 305 295 284 276 256 249 241 234 236 248 247 253 260 252 264 257 266 226 243 261 225 219 216
172 170 173 178 177 173 174 173 180 181 185 172 187 163 181 160 155 142 128 125 119 120 104 48 357 1 356 5 8 17 3 358 1 357 344 349 347 339 330 324 320 308 301 294 272 261 254 239 241 246 255 264 251 257 250 266 264 259 237 247 275 235 222
169 171 175 177 178 182 172 175 171 181 168 161 166 166 163 167 148 139 130 139 129 120 96 80 65 38 32 22 10 1 2 353 5 357 348 345 335 335 332 330 325 319 319 315 305 290 273 257 240 233 229 233 255 266 263 256 253 254 262 215 237 258 222
176 174 169 170 171 163 174 165 161 152 170 167 153 156 143 145 146 141 140 138 120 104 106 103 98 81 67 34 5 353 336 350 358 357 348 339 330 332 331 333 333 324 329 333 330 323 315 301 278 249 233 225 220 244 252 259 262 223 258 263 225 251 242
174 170 170 161 161 162 165 165 163 168 150 148 138 141 143 146 146 146 137 140 136 129 134 143 145 121 90 11 344 341 329 350 347 336 331 335 325 340 332 327 327 320 327 330 328 324 321 317 308 287 264 247 235 229 241 253 273 259 206 247 243 240 232
171 170 169 159 166 169 169 163 158 148 163 151 148 147 147 147 147 144 150 144 147 159 148 156 149 161 168 210 217 254 276 313 321 318 314 326 322 325 317 309 309 313 319 322 318 320 320 318 317 312 301 282 263 242 216 227 235 258 241 236 236 247 227
172 168 164 166 164 171 169 164 162 161 141 153 148 145 147 154 155 153 153 160 163 168 166 191 201 184 199 237 248 239 247 229 245 271 299 308 313 309 305 298 295 297 310 309 311 312 313 314 316 312 309 299 285 271 247 229 235 249 263 204 236 234 241
165 163 162 166 164 168 169 164 160 144 156 174 153 153 151 152 145 150 155 166 165 172 186 205 2 26 326 299 288 262 243 242 246 263 269 284 290 289 290 296 296 298 296 294 301 305 307 310 311 312 308 309 301 290 266 254 239 235 256 248 246 240 225
162 162 159 164 164 165 165 161 156 153 161 167 160 144 152 153 157 143 143 151 152 118 94 118 171 156 193 215 239 266 264 262 262 270 269 266 271 279 287 284 289 295 296 293 291 293 304 302 304 300 299 301 300 294 281 254 266 262 256 257 220 237 218
161 162 163 164 164 164 161 161 160 155 163 153 155 156 144 152 135 132 120 105 113 138 140 134 142 173 197 216 240 251 259 264 269 272 275 275 273 274 276 284 285 290 295 293 292 291 292 297 300 300 299 300 298 298 294 284 261 265 275 278 228 222 219
167 168 164 162 163 163 162 158 161 157 149 154 156 136 109 108 107 116 129 137 139 138 162 177 183 223 235 235 239 252 257 258 260 268 271 279 282 281 278 279 284 284 285 287 289 289 286 290 295 299 297 297 296 298 300 295 279 259 263 267 273 256 235
171 170 163 162 163 164 159 154 159 154 151 152 130 113 118 114 122 129 130 138 152 174 195 204 223 259 270 278 280 278 277 274 269 261 265 271 274 272 275 277 281 282 280 280 283 286 289 284 286 285 289 291 294 295 298 310 304 274 251 254 261 266 255
162 163 162 162 156 152 154 152 147 153 152 135 123 116 119 119 128 131 155 158 160 165 153 113 20 311 294 287 284 284 285 279 273 271 271 270 265 263 262 264 268 271 274 277 280 283 285 284 276 275 279 288 292 299 302 301 308 310 296 276 268 257 255
156 156 154 151 154 155 145 141 146 129 116 113 120 129 138 129 148 138 148 137 149 121 102 73 320 294 288 296 302 301 296 295 297 299 299 292 288 281 275 270 265 264 262 263 265 269 272 277 279 277 275 280 288 293 293 296 298 298 300 301 286 280 259
129 135 144 146 146 147 146 140 125 117 110 114 121 136 147 147 141 103 72 94 97 136 127 243 239 256 294 302 302 297 296 295 295 295 293 289 287 288 288 288 287 281 277 276 272 269 268 268 274 279 275 271 277 281 283 287 288 285 289 291 294 296 294
142 140 144 154 152 145 141 138 129 119 120 127 136 151 145 118 97 94 80 24 40 60 236 235 243 250 258 270 278 281 283 285 284 284 287 289 286 282 280 280 279 281 281 278 275 275 276 275 269 266 273 275 271 273 275 279 279 280 276 275 278 292 291
147 155 162 148 143 141 146 141 125 121 126 136 157 170 106 75 95 125 137 153 263 269 273 269 274 276 278 276 278 277 274 277 276 276 276 278 282 280 277 274 275 279 281 283 282 273 264 264 265 261 259 258 257 258 269 267 264 265 269 263 261 262 271
153 162 153 156 156 157 148 131 129 131 134 149 170 99 90 115 103 103 128 334 274 276 281 285 286 285 282 280 277 275 274 275 276 274 273 275 276 277 277 276 273 274 275 279 284 288 286 279 269 262 258 255 255 255 249 249 264 270 261 270 265 251 250
157 158 162 159 159 154 143 126 124 137 167 184 122 90 97 90 86 357 336 294 312 307 302 293 292 290 289 286 283 279 274 271 272 273 272 271 274 276 277 277 276 270 272 274 278 278 279 281 280 274 263 261 260 254 254 253 244 246 264 265 266 268 247
157 160 160 158 156 151 143 163 165 164 144 111 91 100 103 96 193 335 339 338 312 306 296 296 297 298 296 290 284 277 265 266 266 268 269 269 271 273 272 273 274 274 268 269 269 274 275 278 281 283 280 270 260 255 251 246 249 251 247 249 254 258 258
152 153 154 156 156 160 167 152 161 158 136 137 133 142 157 128 60 27 325 312 310 303 297 298 301 299 299 295 291 286 276 269 267 267 265 266 265 267 267 266 267 271 273 271 267 268 273 275 277 274 273 273 274 272 261 253 249 251 242 222 237 252 266
146 148 149 153 158 165 160 163 142 135 120 117 129 128 119 113 163 229 262 292 316 303 292 290 292 295 298 299 297 296 289 282 278 273 270 266 263 261 262 264 268 270 272 273 272 269 270 274 275 274 271 267 266 264 265 262 262 259 260 263 252 248 254
141 144 146 154 164 161 149 126 135 132 125 136 136 138 163 195 192 185 241 278 289 290 295 297 303 303 303 303 307 301 297 291 284 281 275 271 265 265 265 266 265 268 267 267 269 269 269 269 270 269 268 267 263 259 256 253 248 250 253 260 265 262 262
143 142 145 156 164 150 133 141 153 158 139 154 165 180 187 187 197 180 195 260 282 301 301 302 302 300 299 303 305 304 300 295 290 285 283 275 272 269 268 271 271 271 271 269 267 262 263 267 270 268 268 268 266 260 258 254 255 249 246 252 259 263 262
150 145 154 150 138 138 150 155 156 148 154 158 170 180 181 165 199 221 211 248 296 299 297 297 297 295 297 301 306 303 301 297 294 291 288 283 274 274 272 271 269 270 270 270 268 265 261 258 262 263 266 266 262 260 257 251 251 253 247 247 253 259 258
140 139 140 139 136 137 137 128 152 169 166 163 165 183 179 173 189 227 233 304 304 294 293 290 289 290 295 297 299 300 297 298 296 296 292 290 289 280 275 274 267 263 263 265 264 263 261 257 259 261 257 256 261 263 266 256 250 248 248 243 250 252 258
140 137 136 138 141 150 155 163 172 169 174 174 161 175 184 170 205 244 291 289 288 282 274 281 286 290 292 294 293 296 295 292 294 293 292 288 282 282 277 272 269 264 263 265 264 264 261 258 255 259 255 254 250 263 267 260 258 249 252 252 251 254 261
135 137 136 127 128 168 191 169 176 182 167 167 181 185 125 150 224 294 297 284 270 272 271 268 283 285 285 288 288 288 290 288 289 291 286 282 278 276 270 267 264 260 260 261 262 261 260 258 256 257 255 256 258 256 255 257 259 257 257 260 259 260 261
129 127 135 153 163 191 185 170 185 157 161 169 167 150 154 195 224 287 284 282 276 273 274 273 274 279 282 282 283 283 280 282 283 284 283 282 279 276 270 268 269 267 260 259 259 259 258 257 257 255 257 257 255 254 253 251 251 250 248 249 249 250 251
138 147 158 168 170 161 163 186 172 176 167 156 147 158 218 210 243 259 270 281 281 274 273 271 270 272 278 279 279 279 279 278 278 278 278 278 277 273 267 259 262 263 263 262 261 260 258 255 253 253 251 251 251 250 248 247 242 242 243 244 241 243 245